Pinedale, WY

4:05 AM MST on February 28, 2017 (GMT -0700)
Wenz

Weather History for KPNA - December, 2012

Change the Weather History Date:

Saturday, December 8, 2012

  Actual Average (KBPI) Record (KBPI)
Temperature  
Mean Temperature 10 °F -  
Max Temperature 26 °F 26 °F 49 °F (1987)
Min Temperature -5 °F 2 °F -35 °F (2005)
Degree Days  
Heating Degree Days 54    
Moisture  
Dew Point 8 °F    
Average Humidity 76    
Maximum Humidity 100    
Minimum Humidity 45    
Precipitation  
Precipitation 0.00 in - - ()
Sea Level Pressure  
Sea Level Pressure 29.80 in    
Wind  
Wind Speed 12 mph (WNW)    
Max Wind Speed 29 mph    
Max Gust Speed 36 mph    
Visibility 8 miles    
Events Snow    
Averages and records for this station are not official NWS values.
T = Trace of Precipitation, MM = Missing Value Source: NWS Daily Summary

Daily Weather History Graph

Daily Weather History Graph

Search for Another Location

Airport or City:

Trip Planner

Search our weather history database for the weather conditions in past years. The results will help you decide how hot, cold, wet, or windy it might be!

Date:

Astronomy

Dec. 08, 2012 Rise Set
Actual Time 7:37 AM MST 4:45 PM MST
Civil Twilight 7:05 AM MST 5:17 PM MST
Nautical Twilight 6:30 AM MST 5:52 PM MST
Astronomical Twilight 5:55 AM MST 6:26 PM MST
Moon 1:59 AM MST (12/8) 1:22 PM MST (12/8)
Length of Visible Light 10h 11m
Length of Day
9h 07m
Waning Crescent, 27% of the Moon is Illuminated
Dec 8
Waning Crescent
Dec 13
New
Dec 19
First Quarter
Dec 28
Full
Jan 4
Last Quarter

Hourly Weather History & Observations

Time (MST) Temp. Windchill Dew Point Humidity Pressure Visibility Wind Dir Wind Speed Gust Speed Precip Events Conditions
12:15 AM 23.0 °F 13.9 °F 21.2 °F 93% 29.78 in 5.0 mi SSW 8.1 mph - N/A Snow Light Snow
12:35 AM 23.0 °F 15.8 °F 23.0 °F 100% 29.77 in 2.5 mi SSW 5.8 mph - N/A Snow Light Snow
12:55 AM 23.0 °F 15.8 °F 23.0 °F 100% 29.75 in 4.0 mi SSW 5.8 mph - N/A Snow Light Snow
1:15 AM 23.0 °F 14.7 °F 23.0 °F 100% 29.74 in 3.0 mi SSW 6.9 mph - N/A Snow Light Snow
1:35 AM 24.8 °F 17.9 °F 23.0 °F 93% 29.73 in 1.5 mi SSW 5.8 mph - N/A Snow Light Snow
1:55 AM 24.8 °F 17.9 °F 23.0 °F 93% 29.71 in 2.0 mi SSW 5.8 mph - N/A Snow Light Snow
2:15 AM 24.8 °F 15.3 °F 23.0 °F 93% 29.71 in 3.0 mi SSW 9.2 mph - N/A Snow Light Snow
2:35 AM 24.8 °F 14.6 °F 23.0 °F 93% 29.71 in 1.2 mi SW 10.4 mph 16.1 mph N/A Snow Light Snow
2:55 AM 26.6 °F 16.2 °F 23.0 °F 86% 29.71 in 2.5 mi WSW 11.5 mph 18.4 mph N/A Snow Light Snow
3:15 AM 24.8 °F 11.5 °F 23.0 °F 93% 29.70 in 0.2 mi WSW 17.3 mph - N/A Snow Heavy Snow
3:35 AM 24.8 °F 9.3 °F 21.2 °F 86% 29.71 in 1.8 mi WNW 24.2 mph 32.2 mph N/A Snow Light Snow
4:15 AM 23.0 °F 9.6 °F 19.4 °F 86% 29.71 in 10.0 mi West 16.1 mph 21.9 mph N/A   Overcast
4:35 AM 23.0 °F 10.1 °F 19.4 °F 86% 29.71 in 7.0 mi West 15.0 mph 19.6 mph N/A Snow Light Snow
4:55 AM 23.0 °F 7.6 °F 17.6 °F 80% 29.69 in 10.0 mi West 21.9 mph 29.9 mph N/A   Overcast
5:15 AM 23.0 °F 9.2 °F 19.4 °F 86% 29.69 in 7.0 mi West 17.3 mph 28.8 mph N/A Snow Light Snow
5:35 AM 23.0 °F 9.2 °F 19.4 °F 86% 29.69 in 3.0 mi West 17.3 mph 26.5 mph N/A Snow Light Snow
5:55 AM 21.2 °F 9.5 °F 19.4 °F 93% 29.69 in 10.0 mi West 11.5 mph 19.6 mph N/A   Scattered Clouds
6:15 AM 21.2 °F 8.3 °F 17.6 °F 86% 29.69 in 10.0 mi West 13.8 mph 17.3 mph N/A   Clear
6:35 AM 23.0 °F 9.6 °F 17.6 °F 80% 29.68 in 10.0 mi West 16.1 mph 21.9 mph N/A   Mostly Cloudy
6:55 AM 23.0 °F 10.6 °F 17.6 °F 80% 29.67 in 7.0 mi WSW 13.8 mph - N/A Snow Light Snow
7:15 AM 21.2 °F 10.1 °F 19.4 °F 93% 29.67 in 3.0 mi WSW 10.4 mph - N/A Snow Light Snow
7:35 AM 21.2 °F 10.1 °F 19.4 °F 93% 29.67 in 3.0 mi WSW 10.4 mph - N/A Snow Light Snow
7:55 AM 21.2 °F 10.9 °F 19.4 °F 93% 29.67 in 2.0 mi WSW 9.2 mph - N/A Snow Light Snow
8:15 AM 21.2 °F 11.7 °F 19.4 °F 93% 29.65 in 3.0 mi SSW 8.1 mph - N/A Snow Light Snow
8:35 AM 21.2 °F 8.9 °F 19.4 °F 93% 29.66 in 10.0 mi SW 12.7 mph 17.3 mph N/A   Mostly Cloudy
8:55 AM 19.4 °F 2.8 °F 17.6 °F 93% 29.69 in 0.2 mi WNW 21.9 mph 33.4 mph N/A Snow Light Snow
9:15 AM 17.6 °F -1.0 °F 14.0 °F 86% 29.71 in 1.0 mi WNW 26.5 mph 32.2 mph N/A Snow Light Snow
9:35 AM 17.6 °F -1.6 °F 12.2 °F 79% 29.72 in 1.8 mi NW 28.8 mph 33.4 mph N/A   Overcast
9:55 AM 17.6 °F -0.6 °F 10.4 °F 73% 29.74 in 2.5 mi WNW 25.3 mph 34.5 mph N/A   Haze
10:15 AM 17.6 °F 0.5 °F 8.6 °F 68% 29.76 in 10.0 mi WNW 21.9 mph 31.1 mph N/A   Overcast
10:35 AM 17.6 °F -0.3 °F 8.6 °F 68% 29.77 in 10.0 mi WNW 24.2 mph 32.2 mph N/A   Overcast
10:55 AM 19.4 °F 3.6 °F 8.6 °F 63% 29.78 in 10.0 mi WNW 19.6 mph 29.9 mph N/A   Overcast
11:15 AM 19.4 °F 3.2 °F 8.6 °F 63% 29.79 in 10.0 mi WNW 20.7 mph 29.9 mph N/A   Mostly Cloudy
11:35 AM 19.4 °F 1.1 °F 5.0 °F 54% 29.79 in 10.0 mi NW 27.6 mph 32.2 mph N/A   Mostly Cloudy
11:55 AM 19.4 °F 1.1 °F 3.2 °F 49% 29.79 in 10.0 mi WNW 27.6 mph 35.7 mph N/A   Mostly Cloudy
12:15 PM 17.6 °F -0.6 °F 1.4 °F 49% 29.79 in 10.0 mi NW 25.3 mph 34.5 mph N/A   Mostly Cloudy
12:35 PM 17.6 °F 0.1 °F -0.4 °F 45% 29.80 in 10.0 mi NW 23.0 mph 33.4 mph N/A   Clear
12:55 PM 17.6 °F -0.3 °F 1.4 °F 49% 29.80 in 10.0 mi WNW 24.2 mph 33.4 mph N/A   Scattered Clouds
1:15 PM 17.6 °F 0.1 °F 3.2 °F 53% 29.81 in 10.0 mi WNW 23.0 mph 28.8 mph N/A   Scattered Clouds
1:35 PM 17.6 °F 1.3 °F 3.2 °F 53% 29.81 in 10.0 mi WNW 19.6 mph 28.8 mph N/A   Clear
1:55 PM 17.6 °F 0.9 °F 1.4 °F 49% 29.82 in 10.0 mi NW 20.7 mph 29.9 mph N/A   Clear
2:15 PM 17.6 °F 0.9 °F 3.2 °F 53% 29.83 in 10.0 mi NW 20.7 mph 27.6 mph N/A   Clear
2:35 PM 17.6 °F 2.2 °F 3.2 °F 53% 29.83 in 10.0 mi NW 17.3 mph 25.3 mph N/A   Clear
2:55 PM 17.6 °F 2.2 °F 3.2 °F 53% 29.84 in 10.0 mi WNW 17.3 mph 24.2 mph N/A   Clear
3:15 PM 17.6 °F 2.7 °F 1.4 °F 49% 29.84 in 10.0 mi WNW 16.1 mph - N/A   Clear
3:35 PM 17.6 °F 1.7 °F 3.2 °F 53% 29.85 in 10.0 mi WNW 18.4 mph - N/A   Clear
3:55 PM 15.8 °F 1.4 °F 3.2 °F 58% 29.85 in 10.0 mi WNW 13.8 mph 19.6 mph N/A   Clear
4:15 PM 14.0 °F -0.2 °F 3.2 °F 62% 29.87 in 10.0 mi WNW 12.7 mph - N/A   Clear
4:35 PM 12.2 °F -1.8 °F 3.2 °F 67% 29.87 in 10.0 mi WNW 11.5 mph - N/A   Clear
4:55 PM 10.4 °F -0.4 °F 1.4 °F 67% 29.88 in 10.0 mi WNW 6.9 mph - N/A   Clear
5:15 PM 6.8 °F -7.8 °F -0.4 °F 72% 29.88 in 10.0 mi WNW 10.4 mph - N/A   Clear
5:35 PM 6.8 °F -5.9 °F -0.4 °F 72% 29.88 in 10.0 mi West 8.1 mph - N/A   Clear
5:55 PM 5.0 °F -2.1 °F -0.4 °F 78% 29.89 in 10.0 mi NW 3.5 mph - N/A   Clear
6:15 PM 3.2 °F - -2.2 °F 78% 29.90 in 10.0 mi Calm Calm - N/A   Clear
6:35 PM 3.2 °F -4.2 °F -2.2 °F 78% 29.91 in 10.0 mi North 3.5 mph - N/A   Clear
7:15 PM 3.2 °F -6.2 °F -4.0 °F 72% 29.92 in 10.0 mi NW 4.6 mph - N/A   Clear
7:35 PM -0.4 °F -10.4 °F -5.8 °F 78% 29.92 in 10.0 mi WNW 4.6 mph - N/A   Clear
7:55 PM -2.2 °F -14.2 °F -5.8 °F 85% 29.92 in 10.0 mi NW 5.8 mph - N/A   Clear
8:15 PM -4.0 °F -17.8 °F -4.0 °F 100% 29.92 in 10.0 mi WNW 6.9 mph - N/A   Clear
8:35 PM -4.0 °F - -9.4 °F 78% 29.92 in 10.0 mi Calm Calm - N/A   Clear
8:55 PM -4.0 °F -16.3 °F -7.6 °F 85% 29.93 in 10.0 mi WNW 5.8 mph - N/A   Clear
9:15 PM -5.8 °F -18.4 °F -9.4 °F 84% 29.93 in 10.0 mi WNW 5.8 mph - N/A   Clear
9:35 PM -4.0 °F -14.6 °F -7.6 °F 85% 29.93 in 10.0 mi NW 4.6 mph - N/A   Clear
9:55 PM -4.0 °F -16.3 °F -7.6 °F 85% 29.94 in 10.0 mi NW 5.8 mph - N/A   Mostly Cloudy
10:15 PM -2.2 °F -15.6 °F -7.6 °F 78% 29.95 in 10.0 mi West 6.9 mph - N/A   Overcast
10:35 PM -4.0 °F -17.8 °F -7.6 °F 85% 29.95 in 10.0 mi WNW 6.9 mph - N/A   Overcast
10:55 PM -2.2 °F -15.6 °F -7.6 °F 78% 29.95 in 10.0 mi NW 6.9 mph - N/A   Overcast
11:15 PM -0.4 °F -15.7 °F -7.6 °F 72% 29.95 in 10.0 mi WNW 9.2 mph - N/A   Overcast
11:35 PM 1.4 °F -14.5 °F -5.8 °F 72% 29.95 in 10.0 mi WNW 10.4 mph - N/A   Overcast
11:55 PM 1.4 °F -13.5 °F -5.8 °F 72% 29.95 in 10.0 mi WNW 9.2 mph - N/A   Overcast